TimeCST,TemperatureF,Dew PointF,Humidity,Sea Level PressureIn,VisibilityMPH,Wind Direction,Wind SpeedMPH,Gust SpeedMPH,PrecipitationIn,Events,Conditions,WindDirDegrees,DateUTC
12:53 AM,59.0,37.0,44,29.92,10.0,South,15.0,-,N/A,,Partly Cloudy,180,2012-11-22 06:53:00
1:53 AM,61.0,37.0,41,29.90,10.0,South,20.7,32.2,N/A,,Mostly Cloudy,190,2012-11-22 07:53:00
2:53 AM,59.0,37.9,46,29.90,10.0,SSW,19.6,24.2,N/A,,Scattered Clouds,200,2012-11-22 08:53:00
3:53 AM,59.0,39.0,48,29.87,10.0,South,20.7,26.5,N/A,,Scattered Clouds,190,2012-11-22 09:53:00
4:53 AM,59.0,41.0,51,29.85,10.0,South,19.6,26.5,N/A,,Scattered Clouds,180,2012-11-22 10:53:00
5:53 AM,61.0,43.0,52,29.84,10.0,SSW,20.7,27.6,N/A,,Mostly Cloudy,200,2012-11-22 11:53:00
6:53 AM,62.1,43.0,50,29.83,10.0,SSW,25.3,34.5,N/A,,Overcast,200,2012-11-22 12:53:00
7:53 AM,62.1,44.1,52,29.84,10.0,SSW,24.2,32.2,0.00,Rain,Light Rain,200,2012-11-22 13:53:00
8:53 AM,63.0,45.0,52,29.85,10.0,SSW,23.0,34.5,0.00,,Mostly Cloudy,200,2012-11-22 14:53:00
9:53 AM,63.0,46.0,54,29.85,10.0,SSW,19.6,28.8,N/A,,Overcast,210,2012-11-22 15:53:00
10:53 AM,64.9,46.9,52,29.86,10.0,SW,24.2,34.5,N/A,,Overcast,220,2012-11-22 16:53:00
11:53 AM,66.9,48.0,51,29.84,10.0,SSW,21.9,29.9,N/A,,Overcast,210,2012-11-22 17:53:00
12:53 PM,66.0,48.9,54,29.84,10.0,SW,15.0,23.0,N/A,,Mostly Cloudy,220,2012-11-22 18:53:00
1:53 PM,66.0,48.9,54,29.84,10.0,SSW,15.0,-,N/A,,Mostly Cloudy,210,2012-11-22 19:53:00
2:53 PM,66.0,48.9,54,29.86,10.0,SW,13.8,-,N/A,,Mostly Cloudy,230,2012-11-22 20:53:00
3:53 PM,64.9,48.9,56,29.89,10.0,SW,8.1,-,N/A,,Mostly Cloudy,230,2012-11-22 21:53:00
4:46 PM,64.4,37.4,37,29.96,10.0,NNW,15.0,21.9,N/A,,Clear,330,2012-11-22 22:46:00
4:53 PM,63.0,37.0,38,29.96,10.0,NNW,17.3,24.2,N/A,,Mostly Cloudy,330,2012-11-22 22:53:00
5:53 PM,59.0,39.0,48,30.02,10.0,North,20.7,28.8,N/A,,Mostly Cloudy,350,2012-11-22 23:53:00
6:53 PM,55.0,37.9,53,30.09,10.0,NNW,16.1,25.3,N/A,,Mostly Cloudy,340,2012-11-23 00:53:00
7:53 PM,52.0,36.0,54,30.13,10.0,NNW,19.6,26.5,N/A,,Scattered Clouds,340,2012-11-23 01:53:00
8:53 PM,50.0,35.1,57,30.19,10.0,NNW,13.8,-,N/A,,Partly Cloudy,340,2012-11-23 02:53:00
9:53 PM,46.0,34.0,63,30.21,10.0,NNW,5.8,-,N/A,,Partly Cloudy,330,2012-11-23 03:53:00
10:53 PM,45.0,34.0,65,30.22,10.0,NW,9.2,-,N/A,,Partly Cloudy,320,2012-11-23 04:53:00
11:53 PM,43.0,33.1,68,30.24,10.0,NW,6.9,-,N/A,,Clear,310,2012-11-23 05:53:00